Location: Unspecified
(34.4950°S, 58.5160°W)
Time: 15:32:02
(UTC+00:00)

Cosmos 1655 Rocket - Pass Details

Date: 09 July 2022
Orbit: 971 x 1005 km, 83.0° (Epoch: 11 August)

Event Time Altitude Azimuth Distance (km) Brightness Sun altitude
Rises 21:47:52 0° 14° (NNE) 3,715 7.1 -10.1°
Reaches altitude 10° 21:50:29 10° 20° (NNE) 2,775 6.4 -10.7°
Maximum altitude 21:56:29 44° 90° (E) 1,364 4.4 -11.8°
Drops below altitude 10° 22:02:32 10° 160° (SSE) 2,805 6.0 -13.0°
Sets 22:05:12 0° 166° (SSE) 3,759 6.8 -13.5°
